Regional Weather Roundup
Issued by NWS

Home | Current Version | Previous Version | Graphics & Text | Print | Product List | Glossary Off
Versions: 1 2 3 4 5 6 7 8 9 10 11 12 13 14 15 16 17 18 19 20 21 22 23 24 25 26 27 28 29 30 31 32 33 34 35 36 37 38 39 40 41 42 43 44 45 46 47 48 49 50

357
ASUS43 KMPX 200510
RWRMN
WEATHER ROUNDUP FOR MINNESOTA
NATIONAL WEATHER SERVICE TWIN CITIES/CHANHASSEN MN
1200 AM CDT THU JUL 20 2017


NOTE: "FAIR" INDICATES FEW OR NO CLOUDS BELOW 12,000 FEET WITH NO
SIGNIFICANT WEATHER AND/OR OBSTRUCTIONS TO VISIBILITY. N/A MEANS
CURRENT SKY AND/OR WEATHER CONDITIONS ARE NOT AVAILABLE.

MNZ060>063-068>070-200600-
   Twin Cities Metro

CITY           SKY/WX    TMP DP  RH WIND       PRES   REMARKS
TWIN CITIES    LGT RAIN  70  67  90 N6        29.96R
ST PAUL        LGT RAIN  70  69  97 N5        29.96R
CRYSTAL        LGT RAIN  69  65  86 NE5       29.94R
BLAINE         RAIN      70  70 100 S3        29.95R
LAKEVILLE      CLOUDY    68  68 100 N3        29.93F
EDEN PRAIRIE   CLOUDY    70  68  93 N8        29.94R
SOUTH ST PAUL  RAIN      69  69  99 N5        29.94R
LAKE ELMO      LGT RAIN  70  68  94 CALM      29.96R
$$
MNZ001>005-007-008-013>017-022>024-027-028-200600-
   Northwest Minnesota

CITY           SKY/WX    TMP DP  RH WIND       PRES   REMARKS
BEMIDJI        CLEAR     68  63  86 SW7       29.93S
HALLOCK        CLEAR     63  61  94 CALM      29.90R FOG
ROSEAU         CLEAR     68  63  83 W3        29.90S
WARROAD        CLEAR     66  63  88 W3        29.90S
THIEF RVR FALL CLEAR     68  65  90 NW6       29.94R
CROOKSTON      CLEAR     66  63  88 CALM      29.93R
FOSSTON        CLEAR     64  63  94 SW5       29.94R
DETROIT LAKES  CLEAR     68  64  88 S3        29.96S
MOORHEAD       CLEAR     70  64  83 S6        29.94S
PARK RAPIDS    CLEAR     65  61  87 W3        29.94F
MAHNOMEN       FAIR      66  64  94 S8        29.94R
$$
MNZ006-009>011-018-025>026-200600-
   North Central Minnesota

CITY           SKY/WX    TMP DP  RH WIND       PRES   REMARKS
BAUDETTE       CLOUDY    68  64  87 W3        29.89R
FLAG ISLAND    CLEAR     66  63  88 SW5       29.87S
INTL FALLS     PTCLDY    65  60  84 CALM      29.89S
WASKISH        MOCLDY    70  64  83 SW3       29.90S
BIG FORK       MOCLDY    63  57  82 CALM      29.92S
LONGVILLE      CLEAR     63  61  94 CALM      29.93F
GRAND RAPIDS   CLEAR     63  59  87 CALM      29.94F
CRANE LAKE     MOCLDY    64  61  88 S3        29.91F
ORR            PTCLDY    66  55  68 CALM      29.89F
COOK           CLOUDY    64  57  77 S3        29.92F
WALKER         FAIR      65  61  88 CALM      29.93S
$$
MNZ012-019>021-037-200600-
   Northeast Minnesota

CITY           SKY/WX    TMP DP  RH WIND       PRES   REMARKS
DULUTH         CLEAR     59  59 100 CALM      29.94S
ELY            CLEAR     63  57  82 CALM      29.93F
HIBBING        CLEAR     55  55 100 CALM      29.93F
EVELETH        CLEAR     58  55  90 CALM      29.95S FOG
DULUTH HARBOR  CLEAR     63  57  82 NE6       29.93S
TWO HARBORS    CLEAR     63  57  82 CALM      29.92R
SILVER BAY     CLEAR     61  55  82 CALM      29.92S
GRAND MARAIS     N/A     57  56  96 CALM      29.91F
G MARAIS ARPRT PTCLDY    61  52  72 CALM      29.96F
$$
MNZ029>031-032-039>041-046>048-054>057-064-200600-
   West Central Minnesota

CITY           SKY/WX    TMP DP  RH WIND       PRES   REMARKS
FERGUS FALLS   CLEAR     66  66 100 CALM      29.94S
WHEATON        CLEAR     68  64  88 CALM      29.96S
MORRIS         PTCLDY    68  66  94 N3        29.94R
ALEXANDRIA     PTCLDY    65  64  97 CALM      29.97R
ELBOW LAKE     FAIR      69  68  97 CALM      29.96R
WADENA         CLEAR     64  64 100 CALM      29.95S
GLENWOOD       CLEAR     64  63  94 CALM      29.96S
APPLETON       CLEAR     70  66  88 CALM      29.95R
BENSON         PTCLDY    66  64  94 CALM      29.97R
ORTONVILLE     CLEAR     70  66  88 CALM      29.96R
MADISON        CLOUDY    73  73 100 CALM      29.96R
WILLMAR        MOCLDY    72  70  94 N3        29.96R
$$
MNZ033>034-036-042>043-049>051-058-059-200600-
   Central Minnesota

CITY           SKY/WX    TMP DP  RH WIND       PRES   REMARKS
ST CLOUD       PTCLDY    66  66 100 CALM      29.93F
SAUK CENTRE    FAIR      63  62  95 CALM      29.95S
PAYNESVILLE    PTCLDY    66  65  97 CALM      29.96R
AITKIN         CLEAR     57  55  94 CALM      29.93S
PINE RIVER     CLEAR     61  61 100 MISG      29.97F
BRAINERD       CLEAR     61  59  93 CALM      29.94R
STAPLES        CLEAR     63  61  94 CALM      29.95R
LONG PRAIRIE   FAIR      63  61  94 CALM      29.95S
LITTLE FALLS   MOCLDY    61  59  94 CALM      29.95R
LITCHFIELD     MOCLDY    70  70 100 CALM      29.96R
BUFFALO        CLOUDY    68  65  91 CALM      29.95S
MAPLE LAKE     CLOUDY    69  68  97 E3        29.95S
HUTCHINSON     PTCLDY    69  68  96 NE5       29.97R
$$
MNZ037-044-045-052-053-200600-
   East Central Minnesota

CITY           SKY/WX    TMP DP  RH WIND       PRES   REMARKS
PRINCETON      CLOUDY    66  64  94 CALM      29.94S
MORA           PTCLDY    64  61  88 CALM      29.96R
CAMBRIDGE      CLOUDY    70  63  78 S5        29.93S
RUSH CITY      CLOUDY    67  63  87 S5        29.94S
MOOSE LAKE     CLEAR     59  57  94 CALM      29.92S FOG
HINCKLEY       CLOUDY    64  64 100 S3        29.94R
CLOQUET        CLEAR     61  57  88 CALM      29.94S
MCGREGOR       CLEAR     61  57  88 CALM      29.94S
$$
MNZ071>073-080-081-089-090-097-098-200600-
   Southwest Minnesota

CITY           SKY/WX    TMP DP  RH WIND       PRES   REMARKS
MONTEVIDEO     CLOUDY    70  66  88 CALM      29.95R
GRANITE FALLS  CLOUDY    72  70  91 N3        29.96R
CANBY          CLOUDY    73  70  91 CALM      29.98R
MARSHALL       TSTM      71  70  96 CALM      29.96R
REDWOOD FALLS  CLOUDY    71  67  87 N7        29.93R
OLIVIA         CLOUDY    70  66  88 NE7       29.93R
PIPESTONE      CLOUDY    73  68  83 NE10G20   29.95R THUNDER
WINDOM         CLOUDY    72  68  88 CALM      29.93R
WORTHINGTON    MOCLDY    72  70  93 N6        29.93R
JACKSON        CLOUDY    72  70  94 CALM      29.92R
TRACY          TSTM      72  71  99 N10       29.98R
SLAYTON        TSTM      70  68  92 N3        29.94R
$$
MNZ065>067-074>077-082>085-091>093-200600-
   South Central Minnesota

CITY           SKY/WX    TMP DP  RH WIND       PRES   REMARKS
MANKATO        CLOUDY    72  68  87 E5        29.93R
NEW ULM        CLOUDY    70  66  88 NE10      29.93R
ST JAMES       CLOUDY    70  68  94 N10       29.93R
FAIRMONT       CLOUDY    73  71  93 S3        29.91R
GLENCOE        CLOUDY    70  70 100 CALM      29.95R
FARIBAULT      CLOUDY    70  66  88 NE5       29.93R
OWATONNA       CLOUDY    70  66  88 SE7       29.92F
WASECA         CLOUDY    72  68  88 CALM      29.94R
ALBERT LEA     CLOUDY    73  70  88 S6        29.92R
$$
MNZ078>079-086>088-094>096-200600-
   Southeast Minnesota

CITY           SKY/WX    TMP DP  RH WIND       PRES   REMARKS
ROCHESTER      CLOUDY    69  67  93 SE12      29.95F
RED WING       LGT RAIN  72  70  94 W3        29.92F
STANTON        CLOUDY    70  67  90 SE3       29.91F
DODGE CENTER   CLOUDY    70  66  88 E7        29.94F
WINONA         CLOUDY    70  68  94 E7        29.94F THUNDER
AUSTIN         CLOUDY    73  68  83 S5        29.95S
PRESTON        CLOUDY    67  64  91 NE8       30.00R
$$
ABBREVIATIONS USED IN REMARKS
   TC - TEMPERATURES IN CELSIUS
  WCI - WIND CHILL INDEX
   HX - HEAT INDEX
  VSB - VISIBILITY
$$




USA.gov is the U.S. government's official web portal to all federal, state and local government web resources and services.